Volver al catálogo

EKRAN 6

ActivoComunicacionesGEO
NORAD 12120·PAYLOAD·🇷🇺 Russia

Lanzado Dec 26, 1980 desde Baikonur Cosmodrome

Loading…

TLE

ActualizadoSource: Space-Track

Época: Sep 14, 2026, 14:05 UTC

1 12120U 80104A   26257.58749440  .00000008  00000-0  00000-0 0  9990
2 12120   6.0357 289.8917 0004403  69.1300 268.2359  1.00315246128304

Sigue EKRAN 6 en tiempo real con AllMySat

Download on the App Store